KD4PMP Weather Reports


time (UTC)temp
C
wind
direction
speed
KPH
gust
KPH
rain 1hr
cm
rain 24hr
cm
rain mn
cm
humidity
%
barometer
mb
20260504082007 12 117 4.8 6.4 0.00 0.00 0.00 70 1013.6
20260504081006 12 117 4.8 6.4 0.00 0.00 0.00 70 1013.6
20260504050001 13 163 1.6 6.4 0.00 0.00 0.00 64 1014.3
20260504045001 13 155 3.2 4.8 0.00 0.00 0.00 64 1014.4
20260504044000 13 113 1.6 4.8 0.00 0.00 0.00 64 1014.5
20260504043001 13 111 3.2 4.8 0.00 0.00 0.00 63 1014.7
20260504042000 13 136 1.6 3.2 0.00 0.00 0.00 62 1014.9
20260504041000 13 136 1.6 3.2 0.00 0.00 0.00 62 1014.9
20260504035959 13 136 1.6 3.2 0.00 0.00 0.00 62 1015.0
20260504034959 13 210 1.6 3.2 0.00 0.00 0.00 62 1015.1
20260504033958 13 210 1.6 1.6 0.00 0.00 0.00 62 1015.1
20260504033028 13 210 0.0 1.6 0.00 0.00 0.00 61 1015.3
20260504031958 14 210 0.0 1.6 0.00 0.00 0.00 60 1015.3
20260504030958 14 210 0.0 1.6 0.00 0.00 0.00 59 1015.3
20260504025957 14 210 0.0 1.6 0.00 0.00 0.00 58 1015.2
20260504024957 15 210 0.0 1.6 0.00 0.00 0.00 57 1015.2
20260504023957 15 210 0.0 1.6 0.00 0.00 0.00 55 1015.2
20260504022957 15 210 0.0 1.6 0.00 0.00 0.00 55 1015.2
20260504021957 15 210 0.0 1.6 0.00 0.00 0.00 54 1015.1
20260504021026 15 210 0.0 1.6 0.00 0.00 0.00 55 1015.0
20260504020026 15 210 0.0 0.0 0.00 0.00 0.00 54 1015.0
20260504014955 16 210 0.0 1.6 0.00 0.00 0.00 53 1014.7
20260504014026 16 210 0.0 3.2 0.00 0.00 0.00 53 1014.6
20260504013025 16 210 3.2 4.8 0.00 0.00 0.00 52 1014.5
20260504011955 16 210 3.2 3.2 0.00 0.00 0.00 51 1014.4
20260504011024 17 210 0.0 1.6 0.00 0.00 0.00 49 1014.6
20260504005954 17 210 0.0 1.6 0.00 0.00 0.00 47 1014.6
20260504005024 18 210 0.0 1.6 0.00 0.00 0.00 46 1014.7
20260504004023 18 210 0.0 4.8 0.00 0.00 0.00 45 1014.9
20260504003023 18 207 3.2 3.2 0.00 0.00 0.00 44 1014.7
20260504002023 19 225 1.6 3.2 0.00 0.00 0.00 43 1014.7
20260504001022 20 235 0.0 3.2 0.00 0.00 0.00 42 1014.7
20260504000023 20 252 1.6 4.8 0.00 0.00 0.00 40 1015.0
20260503235022 20 218 0.0 8.0 0.00 0.00 0.00 39 1015.1
20260503234022 21 242 4.8 12.9 0.00 0.00 0.00 37 1015.2
20260503233022 21 229 6.4 12.9 0.00 0.00 0.00 37 1015.3
20260503232021 21 245 6.4 9.7 0.00 0.00 0.00 37 1015.2
20260503231021 21 221 4.8 9.7 0.00 0.00 0.00 38 1015.3
20260503230021 21 250 1.6 12.9 0.00 0.00 0.00 37 1015.4
20260503225020 22 317 8.0 11.3 0.00 0.00 0.00 38 1015.4
20260503224020 21 252 3.2 12.9 0.00 0.00 0.00 38 1015.3
20260503223020 21 235 4.8 16.1 0.00 0.00 0.00 38 1015.4
20260503222020 22 320 6.4 16.1 0.00 0.00 0.00 36 1015.6
20260503221019 22 203 1.6 12.9 0.00 0.00 0.00 36 1015.8
20260503220019 22 227 0.0 12.9 0.00 0.00 0.00 36 1015.9
20260503215019 22 243 1.6 11.3 0.00 0.00 0.00 39 1016.1
20260503214018 22 277 4.8 11.3 0.00 0.00 0.00 37 1016.3
20260503213018 22 296 1.6 11.3 0.00 0.00 0.00 35 1016.3
20260503212018 22 286 1.6 14.5 0.00 0.00 0.00 37 1016.5
20260503211017 21 249 1.6 14.5 0.00 0.00 0.00 37 1016.6
20260503210017 21 265 4.8 8.0 0.00 0.00 0.00 38 1016.9
20260503205017 21 207 3.2 11.3 0.00 0.00 0.00 36 1017.2
20260503204016 21 5 3.2 16.1 0.00 0.00 0.00 38 1017.1
20260503203017 21 340 4.8 14.5 0.00 0.00 0.00 37 1017.3
20260503202016 21 281 6.4 14.5 0.00 0.00 0.00 37 1017.4
20260503201016 21 266 6.4 16.1 0.00 0.00 0.00 38 1017.8
20260503200016 20 217 3.2 14.5 0.00 0.00 0.00 38 1017.9
20260503195015 21 313 4.8 14.5 0.00 0.00 0.00 39 1018.4
20260503194015 20 238 0.0 14.5 0.00 0.00 0.00 42 1018.5
20260503193014 20 287 4.8 17.7 0.00 0.00 0.00 39 1018.6
20260503192014 20 75 0.0 16.1 0.00 0.00 0.00 39 1018.7
20260503191014 20 342 4.8 16.1 0.00 0.00 0.00 39 1018.8
20260503190013 20 285 4.8 16.1 0.00 0.00 0.00 37 1018.9
20260503185013 20 190 3.2 8.0 0.00 0.00 0.00 40 1019.0
20260503184013 19 223 1.6 11.3 0.00 0.00 0.00 40 1019.3
20260503183013 19 244 6.4 11.3 0.00 0.00 0.00 41 1019.3
20260503182012 19 242 3.2 12.9 0.00 0.00 0.00 42 1019.2
20260503181012 18 43 3.2 12.9 0.00 0.00 0.00 39 1019.3
20260503180012 18 121 1.6 9.7 0.00 0.00 0.00 40 1019.6
20260503175012 18 349 3.2 9.7 0.00 0.00 0.00 41 1019.7
20260503174011 17 5 3.2 9.7 0.00 0.00 0.00 41 1019.9
20260503173011 17 234 3.2 6.4 0.00 0.00 0.00 41 1020.0
20260503172010 17 227 1.6 6.4 0.00 0.00 0.00 40 1020.1
20260503171011 17 187 3.2 6.4 0.00 0.00 0.00 46 1020.3
20260503151007 15 152 1.6 4.8 0.00 0.00 0.00 45 1021.4
20260503131005 7 335 0.0 1.6 0.00 0.00 0.00 98 1021.2